sat.trackr.live / text

‹ back to catalog

SUOMI-100

NORAD 43804 · 2018-099AY

PAYLOAD ACTIVE UNKNOWN

§ Identity

Operator
Country
FIN
Launch date
2018-12-03
Launch site
AFWTR
Launch vehicle
Mass (kg)
RCS (m²)

External: N2YO · Heavens-Above · Gunter

§ Orbital elements

Epoch: 2026-05-25T03:45:49.925376Z

Period
94.25 min
Inclination
97.4207°
Eccentricity
0.0009770
Mean motion
15.27802727 rev/d
Perigee alt
475.7 km
Apogee alt
489.1 km
Semi-major
6,860.5 km
B*
4.2736e-4
RAAN
205.6440°
Arg perigee
12.2176°
Mean anomaly
347.9298°
Rev number
40,990

§ Raw data

SUOMI-1001 43804U 18099AY  26145.15682784  .00011551  00000+0  42736-3 0  99922 43804  97.4207 205.6440 0009770  12.2176 347.9298 15.27802727409908

JSON: /api/v1/satellites/43804 · /tle

For live sub-satellite position, see the globe view (requires WebGL).

§ Visibility from observer

Set your observer location to see the next 7 days of passes ≥ 10°. The values pass through the URL so the page stays shareable.

No JS? Fill the form by hand. The geolocation button needs JavaScript.

§ Radio — SatNOGS DB

ModeDescriptionDownlinkUplink
MSK AX.100 Mode 5 GMSK9k6 TLM 437.775 MHz

1 transmitter · refreshed weekly from db.satnogs.org